This is the latest recevied weather packets stored in our database for station/object DB0ROB-10. If no packets are shown the sender has not sent any weather packets the latest 10 day(s).
| Time | Temp. | Humidity | Pressure | Rain* | Wind** | Luminosity | Snow |
|---|---|---|---|---|---|---|---|
| 1778034696 | 9.44° C | 76% | 1007.9 hPa | - | - | - | - |
| 1778033796 | 9.44° C | 75% | 1008.1 hPa | - | - | - | - |
| 1778032896 | 8.89° C | 76% | 1008.2 hPa | - | - | - | - |
| 1778032000 | 9.44° C | 74% | 1008.3 hPa | - | - | - | - |
| 1778031100 | 8.89° C | 77% | 1008.4 hPa | - | - | - | - |
| 1778030200 | 9.44° C | 77% | 1008.5 hPa | - | - | - | - |
| 1778029300 | 9.44° C | 76% | 1008.5 hPa | - | - | - | - |
| 1778028399 | 9.44° C | 76% | 1008.3 hPa | - | - | - | - |
| 1778027499 | 9.44° C | 76% | 1008.5 hPa | - | - | - | - |
| 1778026599 | 9.44° C | 76% | 1008.6 hPa | - | - | - | - |
| 1778025699 | 9.44° C | 77% | 1008.9 hPa | - | - | - | - |
| 1778024798 | 10° C | 76% | 1009 hPa | - | - | - | - |
| 1778023898 | 9.44° C | 77% | 1009.1 hPa | - | - | - | - |
| 1778022998 | 9.44° C | 78% | 1009.1 hPa | - | - | - | - |
| 1778022098 | 8.89° C | 81% | 1009 hPa | - | - | - | - |
| 1778021198 | 9.44° C | 81% | 1009.1 hPa | - | - | - | - |
| 1778020297 | 9.44° C | 81% | 1009 hPa | - | - | - | - |
| 1778019397 | 9.44° C | 80% | 1009 hPa | - | - | - | - |
| 1778018497 | 9.44° C | 83% | 1009.1 hPa | - | - | - | - |
| 1778017597 | 9.44° C | 83% | 1009.1 hPa | - | - | - | - |
| 1778016696 | 10° C | 80% | 1009.3 hPa | - | - | - | - |
| 1778015796 | 10° C | 80% | 1009.2 hPa | - | - | - | - |
| 1778014896 | 10° C | 78% | 1009.3 hPa | - | - | - | - |
| 1778013995 | 10° C | 80% | 1009.3 hPa | - | - | - | - |
| 1778013095 | 10.56° C | 78% | 1009.1 hPa | - | - | - | - |
* Rain since midnight (hover to see other rain measurements)
** Current wind speed in m/s (hover to see current wind gust speed)